Regional Weather Roundup
Issued by NWS

Home | Current Version | Previous Version | Graphics & Text | Print | Product List | Glossary On
Versions: 1 2 3 4 5 6 7 8 9 10 11 12 13 14 15 16 17 18 19 20 21 22 23 24 25 26 27 28 29 30 31 32 33 34 35 36 37 38 39 40 41 42 43 44 45 46 47 48 49 50
727
ASUS45 KPSR 270310
RWRAZ

ARIZONA HOURLY REGIONAL WEATHER ROUNDUP
NATIONAL WEATHER SERVICE PHOENIX AZ
800 PM MST WED APR 26 2017

NOTE: FAIR INDICATES FEW OR NO CLOUDS BELOW 12,000 FEET WITH NO
SIGNIFICANT WEATHER AND/OR OBSTRUCTIONS TO VISIBILITY.

AZZ001>003-036-270400-
NORTHWEST ARIZONA

CITY           SKY/WX    TMP DP  RH WIND       PRES   REMARKS
BULLHEAD CITY  CLEAR     86  32  14 S18       29.61F
KINGMAN        CLEAR     71  31  22 SW23G31   29.76F
$$

AZZ004>008-015-016-018-270400-
NORTH CENTRAL ARIZONA

CITY           SKY/WX    TMP DP  RH WIND       PRES   REMARKS
GRAND CANYON   MOCLDY    56  25  30 SW16G24   29.87F
WILLIAMS       CLOUDY    57  23  26 SW13G22   29.92S
PRESCOTT       PTCLDY    63  22  20 S7        29.88S
FLAGSTAFF      PTCLDY    54  23  30 SW13G21   29.93R
PAYSON         PTCLDY    61  21  21 CALM      29.92S
PAGE           PTCLDY    67  31  26 VRB3      29.69F
$$

AZZ009>014-017-270400-
NORTHEAST ARIZONA

CITY           SKY/WX    TMP DP  RH WIND       PRES   REMARKS
WINSLOW        PTCLDY    66  28  24 SW23      29.81R
SAINT JOHNS    MOCLDY    62  23  22 W20G29    29.82R
WINDOW ROCK    MOCLDY    58  28  32 W16G29    29.83R
SHOW LOW       PTCLDY    54  18  24 SW15      29.94R
$$

AZZ540-542>544-546-548-270400-
GREATER PHOENIX AREA

CITY           SKY/WX    TMP DP  RH WIND       PRES   REMARKS
PHOENIX        MOCLDY    83  26  12 SW10      29.68S
BUCKEYE        MOCLDY    81  27  13 SW9       29.70R
GLENDALE       MOCLDY    84  28  13 S8        29.70S
LUKE AFB       MOCLDY    84  27  12 SW13      29.68S
DEER VALLEY    PTCLDY    81  24  12 SW15      29.69S
SCOTTSDALE     PTCLDY    82  23  11 SW3       29.72R
MESA-GATEWAY   PTCLDY    81  27  13 W7        29.73R
CHANDLER       CLEAR     82  25  12 SW9       29.71R
$$

AZZ539-553-270400-
SOUTHWEST MARICOPA COUNTY AND PINAL COUNTY

CITY           SKY/WX    TMP DP  RH WIND       PRES   REMARKS
CASA GRANDE    CLOUDY    81  26  13 W8        29.73R
GILA BEND      MOCLDY    84  21  10 SW6       29.69R
$$

AZZ503-504-507>509-270400-
SOUTHEAST ARIZONA

CITY           SKY/WX    TMP DP  RH WIND       PRES   REMARKS
TUCSON         PTCLDY    78  23  13 W7        29.80S
DAVIS-MONTHAN  PTCLDY    77  23  13 W6        29.80R
RYAN FIELD     CLEAR     79  25  13 SW10      29.79S
NOGALES        PTCLDY    70  23  17 CALM      29.88S
SIERRA VISTA   PTCLDY    67  19  16 W9        29.92S
DOUGLAS        CLEAR     66  20  17 N10       29.88R
SAFFORD        CLOUDY    73  21  14 NW10      29.78R
$$

AZZ532-270400-
SOUTHWEST ARIZONA

CITY           SKY/WX    TMP DP  RH WIND       PRES   REMARKS
YUMA           MOCLDY    82  37  20 S17       29.68R
$$

CAZ041-043-047-048-061-525>527-560>570-270400-
SOUTHERN CALIFORNIA

CITY           SKY/WX    TMP DP  RH WIND       PRES   REMARKS
DOWNTOWN L.A.  PTCLDY    66  55  67 CALM      29.81F
L.A. AIRPORT   PTCLDY    62  55  77 SW13      29.82F
SAN DIEGO      PTCLDY    65  57  75 SW6       29.88S
BURBANK        PTCLDY    77  50  38 N18G25    29.81S
ONTARIO        MOCLDY    68  53  58 SW9       29.82F
RIVERSIDE      MOCLDY    68  53  58 W9        29.81F
PALM SPRINGS   MOCLDY    85  44  23 SE6       29.67S
EL CENTRO NAS  CLOUDY    83  42  23 W18       29.67S
IMPERIAL       CLOUDY    82  49  31 W7        29.65R
BLYTHE         CLOUDY    86  40  19 SW12      29.66S
NEEDLES        CLEAR     87  31  13 SW6       29.65R
$$

NVZ020-UTZ003-270400-
SOUTHERN NEVADA-UTAH

CITY           SKY/WX    TMP DP  RH WIND       PRES   REMARKS
LAS VEGAS      PTCLDY    80  32  17 SW12G21   29.62F
SALT LAKE CITY CLOUDY    48  45  89 CALM      29.74S
$$

NMZ009-TXZ055-270400-
NEW MEXICO-WEST TEXAS

CITY           SKY/WX    TMP DP  RH WIND       PRES   REMARKS
ALBUQUERQUE    CLOUDY    62  20  19 W7        29.78R
EL PASO        PTCLDY    77  13   9 W20G30    29.75S
$$


........................KEY........................
SKY/WX - SKY CONDITION/WEATHER
TMP    - TEMPERATURE IN FAHRENHEIT
DP     - DEW POINT IN FAHRENHEIT
RH     - RELATIVE HUMIDITY IN PERCENT
WIND   - DIRECTION AND SPEED IN MILES PER HOUR (MPH)
VRB    - VARIABLE WIND DIRECTION
PRES   - MEAN SEA LEVEL PRESSURE IN INCHES OF MERCURY
         F - FALLING PRESSURE   R - RISING PRESSURE
         S - STEADY PRESSURE
VSB    - VISIBILITY IN MILES
HX     - HEAT INDEX IN FAHRENHEIT
WCI    - WIND CHILL INDEX IN FAHRENHEIT
TC     - TEMPERATURE IN CELSIUS WHICH IS ALSO KNOWN AS
         TEMPERATURE IN CENTIGRADE
AFB    - AIR FORCE BASE
         LUKE AFB IS LUKE AIR FORCE BASE
         DAVIS-MONTHAN IS DAVIS-MONTHAN AIR FORCE BASE
NAS    - NAVAL AIR STATION
         EL CENTRO NAS IS EL CENTRO NAVAL AIR STATION
N/A    - NOT AVAILABLE





USA.gov is the U.S. government's official web portal to all federal, state and local government web resources and services.